Time,TemperatureF,DewpointF,PressureIn,WindDirection,WindDirectionDegrees,WindSpeedMPH,WindSpeedGustMPH,Humidity,HourlyPrecipIn,Conditions,Clouds,dailyrainin,SoftwareType,DateUTC
2013-08-29 00:02:00,72.9,71.1,29.91,WSW,250,0.0,0.0,94,0.00,,,0.00,Wunderground v.1.15,2013-08-29 04:02:00,
2013-08-29 00:12:00,72.2,70.4,29.91,WSW,250,0.0,0.0,94,0.00,,,0.00,Wunderground v.1.15,2013-08-29 04:12:00,
2013-08-29 00:22:00,72.0,70.5,29.91,WSW,250,0.0,0.0,95,0.00,,,0.00,Wunderground v.1.15,2013-08-29 04:22:00,
2013-08-29 00:32:00,72.4,70.6,29.90,WSW,250,0.0,0.0,94,0.00,,,0.00,Wunderground v.1.15,2013-08-29 04:32:00,
2013-08-29 00:42:00,72.4,70.3,29.90,WSW,250,0.0,0.0,93,0.00,,,0.00,Wunderground v.1.15,2013-08-29 04:42:00,
2013-08-29 00:52:00,73.0,70.2,29.90,WSW,252,0.0,0.0,91,0.00,,,0.00,Wunderground v.1.15,2013-08-29 04:52:00,
2013-08-29 01:12:00,71.8,69.3,29.89,WSW,250,0.0,0.0,92,0.00,,,0.00,Wunderground v.1.15,2013-08-29 05:12:00,
2013-08-29 01:22:00,71.1,69.6,29.89,WSW,250,0.0,0.0,95,0.00,,,0.00,Wunderground v.1.15,2013-08-29 05:22:00,
2013-08-29 01:32:00,71.1,69.3,29.89,WSW,250,0.0,0.0,94,0.00,,,0.00,Wunderground v.1.15,2013-08-29 05:32:00,
2013-08-29 01:42:00,71.8,69.7,29.89,WSW,252,0.0,0.0,93,0.00,,,0.00,Wunderground v.1.15,2013-08-29 05:42:00,
2013-08-29 01:52:00,72.5,70.0,29.88,SW,230,1.0,3.0,92,0.00,,,0.00,Wunderground v.1.15,2013-08-29 05:52:00,
2013-08-29 02:02:00,71.9,69.1,29.88,SW,236,0.0,0.0,91,0.00,,,0.00,Wunderground v.1.15,2013-08-29 06:02:00,
2013-08-29 02:12:00,69.6,68.1,29.88,SSW,200,0.0,0.0,95,0.00,,,0.00,Wunderground v.1.15,2013-08-29 06:12:00,
2013-08-29 02:22:00,70.4,69.2,29.88,SSW,200,0.0,0.0,96,0.00,,,0.00,Wunderground v.1.15,2013-08-29 06:22:00,
2013-08-29 02:32:00,70.6,68.8,29.88,SSW,200,0.0,0.0,94,0.00,,,0.00,Wunderground v.1.15,2013-08-29 06:32:00,
2013-08-29 02:42:00,70.0,68.8,29.88,SSW,200,0.0,0.0,96,0.00,,,0.00,Wunderground v.1.15,2013-08-29 06:42:00,
2013-08-29 02:52:00,70.1,68.6,29.89,SSW,200,0.0,0.0,95,0.00,,,0.00,Wunderground v.1.15,2013-08-29 06:52:00,
2013-08-29 03:02:00,69.3,68.1,29.89,SSW,200,0.0,0.0,96,0.00,,,0.00,Wunderground v.1.15,2013-08-29 07:02:00,
2013-08-29 03:12:00,69.9,69.0,29.89,SSW,200,0.0,0.0,97,0.00,,,0.00,Wunderground v.1.15,2013-08-29 07:12:00,
2013-08-29 03:22:00,69.7,68.5,29.89,SSW,200,0.0,0.0,96,0.00,,,0.00,Wunderground v.1.15,2013-08-29 07:22:00,
2013-08-29 03:32:00,69.4,68.2,29.89,SSW,200,0.0,0.0,96,0.00,,,0.00,Wunderground v.1.15,2013-08-29 07:32:00,
2013-08-29 03:42:00,69.2,68.3,29.88,SSW,200,0.0,0.0,97,0.00,,,0.00,Wunderground v.1.15,2013-08-29 07:42:00,
2013-08-29 03:52:00,68.6,67.4,29.88,SSW,200,0.0,0.0,96,0.00,,,0.00,Wunderground v.1.15,2013-08-29 07:52:00,
2013-08-29 04:02:00,69.4,68.5,29.88,SSW,200,0.0,0.0,97,0.00,,,0.00,Wunderground v.1.15,2013-08-29 08:02:00,
2013-08-29 04:12:00,69.5,68.6,29.88,SSW,200,0.0,0.0,97,0.00,,,0.00,Wunderground v.1.15,2013-08-29 08:12:00,
2013-08-29 04:22:00,68.9,68.0,29.88,SSW,200,0.0,0.0,97,0.00,,,0.00,Wunderground v.1.15,2013-08-29 08:22:00,
2013-08-29 04:32:00,68.5,67.6,29.88,SSW,203,0.0,0.0,97,0.00,,,0.00,Wunderground v.1.15,2013-08-29 08:32:00,
2013-08-29 04:42:00,68.3,67.4,29.88,SSW,203,0.0,0.0,97,0.00,,,0.00,Wunderground v.1.15,2013-08-29 08:42:00,
2013-08-29 04:52:00,69.3,68.7,29.88,SSW,203,0.0,0.0,98,0.00,,,0.00,Wunderground v.1.15,2013-08-29 08:52:00,
2013-08-29 05:02:00,68.8,67.9,29.88,WNW,292,0.0,0.0,97,0.00,,,0.00,Wunderground v.1.15,2013-08-29 09:02:00,
2013-08-29 05:12:00,70.0,69.4,29.89,WNW,302,0.0,0.0,98,0.00,,,0.00,Wunderground v.1.15,2013-08-29 09:12:00,
2013-08-29 05:22:00,70.1,69.2,29.88,WSW,245,0.0,0.0,97,0.00,,,0.00,Wunderground v.1.15,2013-08-29 09:22:00,
2013-08-29 05:32:00,70.2,69.3,29.88,WSW,245,0.0,0.0,97,0.00,,,0.00,Wunderground v.1.15,2013-08-29 09:32:00,
2013-08-29 05:42:00,69.6,68.4,29.88,NNE,21,1.0,1.0,96,0.00,,,0.00,Wunderground v.1.15,2013-08-29 09:42:00,
2013-08-29 05:52:00,69.4,68.5,29.88,SSW,203,0.0,0.0,97,0.00,,,0.00,Wunderground v.1.15,2013-08-29 09:52:00,
2013-08-29 06:02:00,69.3,68.4,29.88,NNE,24,0.0,1.0,97,0.00,,,0.00,Wunderground v.1.15,2013-08-29 10:02:00,
2013-08-29 06:12:00,69.2,68.3,29.88,NE,36,1.0,1.0,97,0.00,,,0.00,Wunderground v.1.15,2013-08-29 10:12:00,
2013-08-29 06:22:00,69.4,68.5,29.88,NE,36,0.0,0.0,97,0.00,,,0.00,Wunderground v.1.15,2013-08-29 10:22:00,
2013-08-29 06:32:00,69.4,68.5,29.88,NE,36,0.0,0.0,97,0.00,,,0.00,Wunderground v.1.15,2013-08-29 10:32:00,
2013-08-29 06:42:00,69.3,68.4,29.89,NE,36,0.0,0.0,97,0.00,,,0.00,Wunderground v.1.15,2013-08-29 10:42:00,
2013-08-29 06:52:00,69.1,68.2,29.89,NE,36,0.0,0.0,97,0.00,,,0.00,Wunderground v.1.15,2013-08-29 10:52:00,
2013-08-29 07:02:00,68.7,67.8,29.89,NE,36,0.0,0.0,97,0.00,,,0.00,Wunderground v.1.15,2013-08-29 11:02:00,
2013-08-29 07:12:00,69.1,68.5,29.89,North,355,0.0,0.0,98,0.00,,,0.00,Wunderground v.1.15,2013-08-29 11:12:00,
2013-08-29 07:22:00,69.2,68.3,29.90,NW,319,0.0,0.0,97,0.00,,,0.00,Wunderground v.1.15,2013-08-29 11:22:00,
2013-08-29 07:32:00,69.4,68.8,29.90,NW,317,0.0,0.0,98,0.00,,,0.00,Wunderground v.1.15,2013-08-29 11:32:00,
2013-08-29 07:42:00,69.8,68.9,29.90,NW,317,0.0,0.0,97,0.00,,,0.00,Wunderground v.1.15,2013-08-29 11:42:00,
2013-08-29 07:52:00,70.9,70.0,29.90,West,275,1.0,1.0,97,0.00,,,0.00,Wunderground v.1.15,2013-08-29 11:52:00,
2013-08-29 08:02:00,71.2,70.0,29.91,West,275,0.0,0.0,96,0.00,,,0.00,Wunderground v.1.15,2013-08-29 12:02:00,
2013-08-29 08:12:00,72.1,70.6,29.90,NNE,26,1.0,1.0,95,0.00,,,0.00,Wunderground v.1.15,2013-08-29 12:12:00,
2013-08-29 08:22:00,72.9,71.1,29.91,WNW,282,0.0,0.0,94,0.00,,,0.00,Wunderground v.1.15,2013-08-29 12:22:00,
2013-08-29 08:32:00,74.0,71.8,29.91,WSW,242,0.0,2.0,93,0.00,,,0.00,Wunderground v.1.15,2013-08-29 12:32:00,
2013-08-29 08:42:00,75.5,71.7,29.91,WNW,286,1.0,1.0,88,0.00,,,0.00,Wunderground v.1.15,2013-08-29 12:42:00,
2013-08-29 08:52:00,76.3,72.1,29.91,WNW,286,0.0,0.0,87,0.00,,,0.00,Wunderground v.1.15,2013-08-29 12:52:00,
2013-08-29 09:02:00,76.1,71.9,29.91,WNW,286,1.0,1.0,87,0.00,,,0.00,Wunderground v.1.15,2013-08-29 13:02:00,
2013-08-29 09:12:00,76.4,71.9,29.91,WNW,286,0.0,2.0,86,0.00,,,0.00,Wunderground v.1.15,2013-08-29 13:12:00,
2013-08-29 09:22:00,76.7,71.8,29.91,WNW,291,1.0,1.0,85,0.00,,,0.00,Wunderground v.1.15,2013-08-29 13:22:00,
2013-08-29 09:32:00,77.4,72.9,29.91,WNW,294,0.0,0.0,86,0.00,,,0.00,Wunderground v.1.15,2013-08-29 13:32:00,
2013-08-29 09:42:00,79.8,72.3,29.91,West,265,1.0,3.0,78,0.00,,,0.00,Wunderground v.1.15,2013-08-29 13:42:00,
2013-08-29 09:52:00,80.9,71.8,29.91,West,269,2.0,2.0,74,0.00,,,0.00,Wunderground v.1.15,2013-08-29 13:52:00,
2013-08-29 10:02:00,81.3,73.0,29.92,North,10,3.0,3.0,76,0.00,,,0.00,Wunderground v.1.15,2013-08-29 14:02:00,
2013-08-29 10:12:00,81.6,72.5,29.92,WNW,283,2.0,2.0,74,0.00,,,0.00,Wunderground v.1.15,2013-08-29 14:12:00,
2013-08-29 10:22:00,80.9,72.2,29.92,WNW,298,2.0,2.0,75,0.00,,,0.00,Wunderground v.1.15,2013-08-29 14:22:00,
2013-08-29 10:32:00,81.2,73.3,29.92,WNW,282,2.0,2.0,77,0.00,,,0.00,Wunderground v.1.15,2013-08-29 14:32:00,
2013-08-29 10:42:00,82.7,73.6,29.92,NW,306,1.0,1.0,74,0.00,,,0.00,Wunderground v.1.15,2013-08-29 14:42:00,
2013-08-29 10:52:00,83.8,73.0,29.92,North,355,2.0,3.0,70,0.00,,,0.00,Wunderground v.1.15,2013-08-29 14:52:00,
2013-08-29 11:02:00,83.7,74.1,29.92,NW,304,3.0,3.0,73,0.00,,,0.00,Wunderground v.1.15,2013-08-29 15:02:00,
2013-08-29 11:12:00,84.5,73.6,29.91,NNE,19,2.0,3.0,70,0.00,,,0.00,Wunderground v.1.15,2013-08-29 15:12:00,
2013-08-29 11:22:00,85.2,74.3,29.91,North,350,3.0,5.0,70,0.00,,,0.00,Wunderground v.1.15,2013-08-29 15:22:00,
2013-08-29 11:32:00,86.3,74.5,29.91,NNW,339,3.0,4.0,68,0.00,,,0.00,Wunderground v.1.15,2013-08-29 15:32:00,
2013-08-29 11:42:00,86.7,72.1,29.91,North,9,5.0,5.0,62,0.00,,,0.00,Wunderground v.1.15,2013-08-29 15:42:00,
2013-08-29 11:52:00,86.8,72.7,29.91,North,360,4.0,4.0,63,0.00,,,0.00,Wunderground v.1.15,2013-08-29 15:52:00,
2013-08-29 12:02:00,87.7,73.1,29.90,West,277,2.0,3.0,62,0.00,,,0.00,Wunderground v.1.15,2013-08-29 16:02:00,
2013-08-29 12:12:00,87.9,72.3,29.91,NE,56,4.0,4.0,60,0.00,,,0.00,Wunderground v.1.15,2013-08-29 16:12:00,
2013-08-29 12:22:00,88.3,74.1,29.90,NNW,345,2.0,3.0,63,0.00,,,0.00,Wunderground v.1.15,2013-08-29 16:22:00,
2013-08-29 12:32:00,88.3,73.6,29.90,NNE,28,3.0,4.0,62,0.00,,,0.00,Wunderground v.1.15,2013-08-29 16:32:00,
2013-08-29 12:42:00,88.2,73.5,29.90,NNW,345,4.0,4.0,62,0.00,,,0.00,Wunderground v.1.15,2013-08-29 16:42:00,
2013-08-29 12:52:00,88.0,73.8,29.90,NNE,26,3.0,5.0,63,0.00,,,0.00,Wunderground v.1.15,2013-08-29 16:52:00,
2013-08-29 13:02:00,88.1,72.0,29.90,WNW,303,3.0,3.0,59,0.00,,,0.00,Wunderground v.1.15,2013-08-29 17:02:00,
2013-08-29 13:12:00,88.8,73.1,29.89,NE,47,3.0,6.0,60,0.00,,,0.00,Wunderground v.1.15,2013-08-29 17:12:00,
2013-08-29 13:22:00,88.5,74.3,29.89,East,82,4.0,4.0,63,0.00,,,0.00,Wunderground v.1.15,2013-08-29 17:22:00,
2013-08-29 13:32:00,88.8,75.5,29.89,SE,136,2.0,2.0,65,0.00,,,0.00,Wunderground v.1.15,2013-08-29 17:32:00,
2013-08-29 13:42:00,88.3,75.5,29.89,NNE,32,1.0,5.0,66,0.00,,,0.00,Wunderground v.1.15,2013-08-29 17:42:00,
2013-08-29 13:52:00,88.6,74.4,29.89,East,84,2.0,2.0,63,0.00,,,0.00,Wunderground v.1.15,2013-08-29 17:52:00,
2013-08-29 14:02:00,89.3,75.0,29.89,North,360,2.0,2.0,63,0.00,,,0.00,Wunderground v.1.15,2013-08-29 18:02:00,
2013-08-29 14:12:00,88.7,75.4,29.88,NE,55,4.0,4.0,65,0.00,,,0.00,Wunderground v.1.15,2013-08-29 18:12:00,
2013-08-29 14:22:00,88.3,74.6,29.88,WSW,251,2.0,3.0,64,0.00,,,0.00,Wunderground v.1.15,2013-08-29 18:22:00,
2013-08-29 14:32:00,88.7,75.0,29.87,WNW,289,2.0,2.0,64,0.00,,,0.00,Wunderground v.1.15,2013-08-29 18:32:00,
2013-08-29 14:42:00,88.4,74.7,29.87,SW,231,2.0,2.0,64,0.00,,,0.00,Wunderground v.1.15,2013-08-29 18:42:00,
2013-08-29 15:02:00,89.4,75.1,29.86,West,275,3.0,4.0,63,0.00,,,0.00,Wunderground v.1.15,2013-08-29 19:02:00,
2013-08-29 15:12:00,89.6,74.9,29.86,NW,321,4.0,4.0,62,0.00,,,0.00,Wunderground v.1.15,2013-08-29 19:12:00,
2013-08-29 15:22:00,90.0,76.6,29.86,SSE,155,3.0,4.0,65,0.00,,,0.00,Wunderground v.1.15,2013-08-29 19:22:00,
2013-08-29 15:32:00,88.7,75.4,29.85,WSW,241,4.0,5.0,65,0.00,,,0.00,Wunderground v.1.15,2013-08-29 19:32:00,
2013-08-29 15:42:00,89.2,76.4,29.85,WNW,288,3.0,3.0,66,0.00,,,0.00,Wunderground v.1.15,2013-08-29 19:42:00,
2013-08-29 15:52:00,89.4,75.6,29.85,West,273,4.0,5.0,64,0.00,,,0.00,Wunderground v.1.15,2013-08-29 19:52:00,
2013-08-29 16:02:00,89.5,75.7,29.85,WNW,284,3.0,3.0,64,0.00,,,0.00,Wunderground v.1.15,2013-08-29 20:02:00,
2013-08-29 16:12:00,89.7,74.9,29.85,NW,315,4.0,4.0,62,0.00,,,0.00,Wunderground v.1.15,2013-08-29 20:12:00,
2013-08-29 16:22:00,89.9,75.6,29.84,WSW,246,4.0,4.0,63,0.00,,,0.00,Wunderground v.1.15,2013-08-29 20:22:00,
2013-08-29 16:32:00,89.9,74.6,29.84,WNW,301,5.0,5.0,61,0.00,,,0.00,Wunderground v.1.15,2013-08-29 20:32:00,
2013-08-29 16:42:00,89.8,75.5,29.84,West,279,4.0,4.0,63,0.00,,,0.00,Wunderground v.1.15,2013-08-29 20:42:00,
2013-08-29 16:52:00,90.1,76.3,29.84,SW,215,5.0,5.0,64,0.00,,,0.00,Wunderground v.1.15,2013-08-29 20:52:00,
2013-08-29 17:02:00,90.1,75.3,29.84,West,267,4.0,5.0,62,0.00,,,0.00,Wunderground v.1.15,2013-08-29 21:02:00,
2013-08-29 17:12:00,90.0,75.2,29.84,WSW,254,4.0,4.0,62,0.00,,,0.00,Wunderground v.1.15,2013-08-29 21:12:00,
2013-08-29 17:22:00,90.0,74.2,29.84,SW,222,4.0,4.0,60,0.00,,,0.00,Wunderground v.1.15,2013-08-29 21:22:00,
2013-08-29 17:32:00,89.7,75.4,29.84,WSW,257,3.0,3.0,63,0.00,,,0.00,Wunderground v.1.15,2013-08-29 21:32:00,
2013-08-29 17:42:00,89.9,74.6,29.84,WSW,241,2.0,2.0,61,0.00,,,0.00,Wunderground v.1.15,2013-08-29 21:42:00,
2013-08-29 17:52:00,89.8,76.0,29.84,West,260,3.0,3.0,64,0.00,,,0.00,Wunderground v.1.15,2013-08-29 21:52:00,
2013-08-29 18:02:00,89.8,76.0,29.84,West,267,3.0,4.0,64,0.00,,,0.00,Wunderground v.1.15,2013-08-29 22:02:00,
2013-08-29 18:12:00,89.4,75.6,29.83,WSW,244,3.0,3.0,64,0.00,,,0.00,Wunderground v.1.15,2013-08-29 22:12:00,
2013-08-29 18:22:00,89.3,75.5,29.83,West,273,3.0,3.0,64,0.00,,,0.00,Wunderground v.1.15,2013-08-29 22:22:00,
2013-08-29 18:32:00,89.0,75.7,29.83,WSW,240,3.0,3.0,65,0.00,,,0.00,Wunderground v.1.15,2013-08-29 22:32:00,
2013-08-29 18:42:00,88.9,75.6,29.83,WSW,254,4.0,4.0,65,0.00,,,0.00,Wunderground v.1.15,2013-08-29 22:42:00,
2013-08-29 18:52:00,88.7,75.9,29.83,East,79,2.0,6.0,66,0.00,,,0.00,Wunderground v.1.15,2013-08-29 22:52:00,
2013-08-29 19:02:00,84.4,75.2,29.84,ESE,116,7.0,7.0,74,0.00,,,0.00,Wunderground v.1.15,2013-08-29 23:02:00,
2013-08-29 19:12:00,83.8,74.6,29.84,ESE,112,4.0,4.0,74,0.00,,,0.00,Wunderground v.1.15,2013-08-29 23:12:00,
2013-08-29 19:22:00,82.6,74.3,29.84,South,182,3.0,3.0,76,0.00,,,0.00,Wunderground v.1.15,2013-08-29 23:22:00,
2013-08-29 19:32:00,82.6,73.9,29.85,South,175,2.0,3.0,75,0.00,,,0.00,Wunderground v.1.15,2013-08-29 23:32:00,
2013-08-29 19:42:00,82.0,73.3,29.85,South,188,3.0,3.0,75,0.00,,,0.00,Wunderground v.1.15,2013-08-29 23:42:00,
2013-08-29 19:52:00,81.1,73.2,29.86,SW,236,2.0,2.0,77,0.00,,,0.00,Wunderground v.1.15,2013-08-29 23:52:00,
2013-08-29 20:02:00,80.5,73.4,29.86,South,180,1.0,2.0,79,0.00,,,0.00,Wunderground v.1.15,2013-08-30 00:02:00,
2013-08-29 20:12:00,80.2,73.5,29.86,WSW,242,1.0,1.0,80,0.00,,,0.00,Wunderground v.1.15,2013-08-30 00:12:00,
2013-08-29 20:22:00,80.0,73.6,29.87,West,273,0.0,0.0,81,0.00,,,0.00,Wunderground v.1.15,2013-08-30 00:22:00,
2013-08-29 20:32:00,79.6,73.3,29.87,West,269,2.0,3.0,81,0.00,,,0.00,Wunderground v.1.15,2013-08-30 00:32:00,
2013-08-29 20:42:00,79.0,73.4,29.87,SW,216,1.0,3.0,83,0.00,,,0.00,Wunderground v.1.15,2013-08-30 00:42:00,
2013-08-29 20:52:00,78.7,72.7,29.87,WSW,257,2.0,2.0,82,0.00,,,0.00,Wunderground v.1.15,2013-08-30 00:52:00,
2013-08-29 21:02:00,77.5,73.0,29.88,WNW,286,1.0,1.0,86,0.00,,,0.00,Wunderground v.1.15,2013-08-30 01:02:00,
2013-08-29 21:12:00,76.8,72.6,29.88,West,259,1.0,1.0,87,0.00,,,0.00,Wunderground v.1.15,2013-08-30 01:12:00,
2013-08-29 21:22:00,76.2,73.1,29.88,West,259,0.0,0.0,90,0.00,,,0.00,Wunderground v.1.15,2013-08-30 01:22:00,
2013-08-29 21:32:00,75.7,72.9,29.89,West,259,0.0,0.0,91,0.00,,,0.00,Wunderground v.1.15,2013-08-30 01:32:00,
2013-08-29 21:42:00,75.3,72.8,29.89,West,259,0.0,0.0,92,0.00,,,0.00,Wunderground v.1.15,2013-08-30 01:42:00,
2013-08-29 21:52:00,74.5,72.7,29.89,West,259,0.0,0.0,94,0.00,,,0.00,Wunderground v.1.15,2013-08-30 01:52:00,
2013-08-29 22:02:00,74.8,73.0,29.89,SSW,194,0.0,1.0,94,0.00,,,0.00,Wunderground v.1.15,2013-08-30 02:02:00,
2013-08-29 22:12:00,74.8,73.0,29.89,SSW,194,0.0,0.0,94,0.00,,,0.00,Wunderground v.1.15,2013-08-30 02:12:00,
2013-08-29 22:22:00,74.8,72.6,29.89,SSW,194,0.0,0.0,93,0.00,,,0.00,Wunderground v.1.15,2013-08-30 02:22:00,
2013-08-29 22:32:00,74.9,72.7,29.89,SSW,194,0.0,0.0,93,0.00,,,0.00,Wunderground v.1.15,2013-08-30 02:32:00,
2013-08-29 22:42:00,74.9,72.7,29.89,SSW,194,0.0,0.0,93,0.00,,,0.00,Wunderground v.1.15,2013-08-30 02:42:00,
2013-08-29 22:52:00,74.8,72.6,29.89,SSW,194,0.0,0.0,93,0.00,,,0.00,Wunderground v.1.15,2013-08-30 02:52:00,
2013-08-29 23:02:00,74.4,72.9,29.90,East,84,3.0,3.0,95,0.00,,,0.00,Wunderground v.1.15,2013-08-30 03:02:00,
2013-08-29 23:12:00,74.1,72.6,29.89,East,86,1.0,1.0,95,0.00,,,0.00,Wunderground v.1.15,2013-08-30 03:12:00,
2013-08-29 23:22:00,74.1,72.9,29.89,East,86,0.0,0.0,96,0.00,,,0.00,Wunderground v.1.15,2013-08-30 03:22:00,
2013-08-29 23:32:00,74.0,72.5,29.90,East,86,0.0,0.0,95,0.00,,,0.00,Wunderground v.1.15,2013-08-30 03:32:00,
2013-08-29 23:42:00,73.9,72.7,29.90,NE,47,1.0,1.0,96,0.00,,,0.00,Wunderground v.1.15,2013-08-30 03:42:00,
2013-08-29 23:52:00,74.2,72.7,29.90,NE,54,2.0,2.0,95,0.00,,,0.00,Wunderground v.1.15,2013-08-30 03:52:00,